Wind_Speed
17 17 17 17 18 17 17 17 17 17 19 20 20 21 20 21 25 23 25 18 10 13 12 9 17 19 17 20 20 15 14 17 21 20 14 7 4 12 7 9 9 12 17 4 2
18 17 17 17 18 18 18 18 17 18 19 20 20 21 21 20 23 29 27 27 20 18 18 17 20 20 23 21 20 17 14 22 18 10 7 10 7 9 8 14 16 17 18 16 9
18 17 18 18 18 19 19 18 19 20 21 20 21 22 20 18 22 18 11 13 15 21 18 17 18 22 25 21 25 21 21 15 16 8 12 13 10 9 15 15 16 14 16 18 18
18 18 18 19 19 19 19 19 20 20 21 22 22 22 21 10 7 2 3 3 13 17 20 21 20 24 23 22 24 21 22 26 14 9 12 14 16 16 13 17 16 13 15 18 20
21 20 19 20 19 20 20 21 22 22 22 24 26 23 15 13 26 18 18 8 7 22 24 25 24 25 21 21 19 23 21 20 20 19 16 16 15 16 16 16 16 15 17 21 22
19 19 19 19 20 21 21 22 23 24 24 26 23 15 10 20 8 13 13 13 11 20 21 24 22 24 21 22 17 16 23 24 18 18 20 16 18 20 15 17 16 15 17 19 19
19 19 19 20 21 22 22 23 24 25 26 23 16 10 16 28 7 11 14 15 15 19 20 21 20 18 17 18 18 21 13 17 22 19 16 16 18 17 15 11 11 13 15 17 20
20 19 20 21 22 23 23 24 24 26 25 17 12 8 13 8 21 12 15 17 17 17 16 17 17 18 22 15 7 18 18 18 20 22 20 11 16 20 15 11 11 13 14 15 16
22 21 20 22 25 24 25 24 25 24 16 10 5 8 12 11 17 22 18 20 19 17 14 15 16 18 21 15 13 16 18 23 21 21 12 15 17 15 9 9 12 13 13 17 16
23 23 23 24 25 27 27 23 19 10 4 5 7 7 18 18 13 20 23 19 23 20 15 16 16 15 16 16 17 18 17 19 21 17 18 15 20 6 10 13 14 14 15 14 18
25 24 25 26 24 26 27 14 6 7 14 15 14 12 3 7 12 20 28 21 23 23 20 24 17 20 24 22 19 19 17 16 15 7 10 19 17 16 13 12 14 14 14 15 16
26 26 26 28 26 26 19 7 7 13 18 27 33 34 28 12 15 19 27 28 24 21 23 17 23 23 21 20 22 20 15 13 10 11 9 14 19 11 16 8 13 5 9 15 17
29 28 28 28 27 11 7 18 19 17 13 29 36 39 35 31 25 28 34 36 26 25 26 26 17 24 22 21 21 20 18 16 16 14 19 15 17 15 13 12 8 10 12 13 24
27 27 26 26 13 9 20 7 6 10 8 19 16 21 34 27 32 28 35 36 17 26 26 24 20 20 25 23 19 19 18 14 12 12 14 20 14 18 20 16 11 7 10 10 10
24 24 22 19 19 12 12 10 9 4 8 6 18 4 19 35 15 37 33 36 25 21 22 24 21 17 21 19 20 17 14 17 16 16 17 21 16 16 23 20 15 9 12 15 15
25 25 22 17 16 19 14 10 5 8 15 7 11 11 19 32 28 32 37 36 31 21 22 23 22 21 19 16 18 15 15 15 17 13 15 22 14 15 15 16 19 15 11 15 15
27 27 26 18 20 5 7 9 8 12 10 17 11 16 24 24 28 26 29 29 23 24 21 21 24 18 15 21 19 16 15 10 12 13 12 21 17 14 8 12 19 16 16 14 14
29 29 26 20 16 14 14 12 19 14 26 22 5 22 26 24 27 26 25 26 29 24 17 17 19 23 17 23 22 22 21 12 14 14 17 20 16 13 11 11 15 19 16 15 15
28 20 20 13 13 16 17 15 21 23 26 19 23 22 14 24 23 23 26 26 27 26 23 18 23 26 20 19 19 22 20 20 12 16 6 5 8 10 11 11 15 17 17 15 14
25 23 15 7 6 13 11 23 28 25 24 7 3 19 5 27 18 24 27 26 27 28 20 10 15 13 24 22 21 17 14 12 7 8 15 12 8 8 14 15 16 16 18 16 14
16 12 4 5 7 10 12 20 23 31 29 25 19 24 21 14 10 23 21 19 26 24 22 15 11 14 19 19 21 18 11 8 16 7 5 9 5 7 2 11 16 16 19 17 15
12 7 5 4 5 8 14 24 28 16 27 18 21 23 19 7 7 6 18 2 13 14 22 20 8 5 18 20 21 21 19 19 5 10 7 4 7 8 6 5 12 18 17 15 12
12 23 13 12 5 10 13 20 15 14 19 18 23 25 24 23 24 14 20 13 5 1 1 6 13 11 7 6 9 16 12 10 12 8 11 4 3 0 4 16 24 14 16 13 10
8 5 4 10 16 14 10 16 16 1 15 12 21 9 19 22 21 7 6 5 4 1 17 8 10 16 13 7 7 19 19 18 14 9 11 13 5 10 10 10 11 12 14 13 12
7 6 7 8 12 16 17 10 17 8 10 9 11 16 17 7 15 19 10 14 10 0 4 4 6 13 12 1 2 21 17 18 13 15 9 14 12 8 1 13 13 12 14 14 10
9 6 12 21 21 16 18 11 9 5 3 10 9 15 13 9 17 10 12 11 11 16 15 11 3 9 10 14 16 7 4 8 13 18 14 13 9 10 17 21 16 16 16 11 11
16 18 7 11 13 16 10 11 13 5 3 6 17 8 9 11 5 9 11 7 3 16 14 15 12 5 3 12 13 13 15 17 16 15 12 11 12 6 3 10 16 12 8 4 1
Wind_Direction
328 323 322 321 317 314 310 303 301 301 301 301 302 301 300 300 299 294 272 248 234 251 226 214 207 217 215 225 221 229 249 246 242 246 242 217 218 202 268 268 209 235 232 85 122
323 319 320 318 316 312 311 311 310 305 299 298 299 299 300 304 299 283 275 257 250 240 216 206 201 206 213 217 210 224 226 240 251 294 275 269 193 254 201 235 233 233 245 248 238
331 321 322 318 314 314 315 315 312 308 303 301 298 298 298 310 307 282 257 235 238 217 203 210 209 207 222 218 214 222 243 240 254 271 283 287 263 239 250 248 250 240 236 233 226
332 325 320 317 314 312 310 308 307 305 303 301 300 298 297 294 263 137 237 261 226 205 202 206 214 208 223 219 225 233 239 251 270 255 255 251 255 260 240 251 263 258 247 240 213
326 321 318 316 313 312 311 308 306 307 305 303 299 293 292 247 248 267 276 246 223 189 196 204 211 212 221 234 226 232 247 238 251 251 243 250 248 251 255 251 247 251 242 229 214
320 319 317 316 313 311 309 307 306 305 302 307 298 286 262 258 260 224 228 229 187 183 201 203 212 217 234 243 228 236 235 257 243 240 236 241 247 237 242 240 239 238 235 217 222
322 318 316 314 313 311 311 307 305 305 304 303 292 262 249 239 231 226 208 205 191 190 201 206 213 231 230 249 237 247 249 240 244 241 244 235 249 234 241 250 220 207 219 222 219
319 316 315 314 314 310 308 305 306 302 300 288 276 213 249 268 229 219 203 200 198 198 205 206 213 236 228 239 259 231 238 250 227 218 224 213 256 205 218 205 215 210 220 215 211
320 316 315 313 312 313 309 310 308 300 293 281 180 209 267 230 220 207 196 193 193 191 199 202 207 220 220 238 227 219 238 227 251 190 202 206 243 151 188 211 221 216 212 204 197
321 320 317 315 315 315 312 316 310 291 298 192 238 233 241 232 217 201 195 194 190 188 191 201 204 214 221 212 221 217 221 250 224 172 218 198 246 234 221 224 220 227 221 204 211
320 318 317 315 318 319 315 329 275 225 224 217 214 226 159 181 177 194 190 186 190 195 203 201 209 211 207 217 231 244 219 233 264 192 202 228 232 239 225 201 229 233 230 224 200
318 317 315 315 324 320 311 254 295 304 289 254 251 248 245 227 200 193 183 191 194 203 207 199 222 222 221 212 228 238 244 241 227 251 215 241 243 248 242 207 234 244 252 237 217
318 319 319 319 330 338 310 287 290 298 270 274 249 237 231 224 224 193 189 194 195 205 205 221 217 222 216 221 215 226 232 228 239 228 229 240 245 241 244 220 200 221 242 239 226
318 318 318 320 334 294 313 324 293 319 273 261 220 236 216 209 222 215 197 197 195 211 215 221 229 207 224 217 213 221 217 250 269 240 236 206 242 210 227 197 196 183 186 186 142
314 311 311 305 292 294 277 291 295 292 274 342 159 208 193 190 188 209 194 204 219 207 211 213 220 199 224 206 221 228 220 205 218 251 262 251 219 260 192 190 176 169 155 146 145
314 311 305 308 281 282 276 284 262 233 243 259 147 195 171 200 231 180 187 206 217 220 220 235 205 231 208 221 215 222 235 229 232 226 235 242 234 233 187 196 165 148 153 139 140
308 306 299 280 261 278 261 237 228 237 290 253 191 200 197 194 214 170 186 194 202 213 214 212 232 205 223 215 214 216 207 203 210 220 229 223 234 242 340 189 141 151 150 148 147
314 310 306 282 266 270 242 237 238 241 229 266 300 311 205 201 214 174 189 196 210 204 215 212 209 209 192 228 209 207 204 213 216 212 221 205 217 234 169 138 160 137 147 150 152
320 316 299 288 239 226 224 229 235 238 257 283 301 287 289 214 205 179 200 203 200 215 221 207 221 200 196 218 212 196 215 236 253 277 252 244 155 129 169 194 134 147 147 159 153
316 310 287 202 213 195 222 246 268 266 254 261 340 299 277 278 196 196 199 205 203 208 219 220 236 191 193 201 220 242 229 223 216 232 245 179 192 175 184 172 166 158 163 161 161
322 301 156 175 138 184 243 251 249 252 270 252 211 238 277 293 307 274 198 210 205 206 208 220 268 206 191 199 201 203 202 193 240 251 244 253 206 35 40 224 184 171 167 164 172
312 282 223 194 230 216 247 258 312 258 273 237 223 253 268 268 271 277 270 122 356 205 208 209 242 145 211 194 221 212 205 193 204 222 228 187 270 148 253 181 318 171 169 167 173
300 288 280 212 260 283 296 295 274 299 278 254 256 245 253 255 240 159 262 164 14 42 251 221 218 186 243 144 212 191 227 253 229 236 215 250 162 11 247 163 190 185 156 167 177
297 291 124 238 271 277 294 308 313 272 269 283 286 297 298 264 253 196 125 354 235 292 39 35 266 222 214 184 241 207 214 204 190 210 240 229 192 189 197 201 175 178 171 185 185
258 280 300 298 314 303 298 281 298 356 314 310 298 225 243 269 278 258 177 162 197 169 108 74 280 241 250 315 128 250 212 220 206 239 194 236 242 154 17 312 184 188 180 192 178
284 308 322 303 312 310 294 304 325 333 13 295 215 306 329 249 244 303 185 206 172 190 193 171 232 265 244 207 240 183 187 209 223 237 242 258 275 162 170 187 213 183 179 199 221
311 291 262 283 295 296 314 329 301 278 196 276 335 311 288 266 130 18 17 250 104 172 187 177 212 199 269 242 218 214 210 206 238 238 248 249 232 270 137 203 174 168 225 159 117
Height
1529 1526 1524 1522 1520 1517 1515 1512 1509 1507 1505 1503 1500 1498 1496 1493 1491 1490 1487 1487 1489 1487 1488 1491 1493 1496 1496 1494 1494 1493 1487 1476 1466 1459 1458 1458 1470 1472 1478 1477 1477 1478 1479 1478 1481
1525 1523 1520 1518 1516 1513 1511 1509 1506 1504 1502 1499 1497 1495 1493 1490 1485 1479 1478 1479 1481 1483 1486 1489 1489 1492 1491 1489 1489 1488 1480 1470 1459 1456 1456 1458 1469 1470 1477 1478 1477 1478 1478 1479 1481
1523 1521 1518 1515 1512 1510 1508 1506 1503 1500 1497 1495 1493 1491 1490 1490 1484 1469 1470 1471 1475 1478 1482 1487 1487 1488 1487 1483 1482 1480 1475 1463 1461 1468 1470 1468 1468 1470 1472 1473 1471 1471 1473 1475 1478
1521 1518 1515 1513 1510 1507 1504 1501 1499 1496 1493 1491 1489 1488 1487 1489 1478 1467 1469 1470 1470 1473 1479 1482 1483 1482 1479 1474 1476 1477 1471 1469 1463 1468 1474 1472 1471 1468 1469 1469 1470 1469 1472 1472 1472
1518 1515 1512 1509 1507 1504 1501 1499 1495 1493 1490 1488 1485 1483 1483 1484 1471 1469 1466 1467 1467 1469 1475 1477 1478 1478 1473 1471 1472 1469 1470 1466 1468 1469 1470 1470 1467 1468 1465 1467 1467 1467 1468 1470 1469
1515 1512 1509 1506 1503 1500 1498 1494 1491 1488 1485 1483 1480 1479 1481 1478 1465 1466 1467 1464 1467 1470 1473 1474 1474 1474 1471 1467 1466 1465 1468 1465 1463 1464 1466 1466 1463 1462 1461 1461 1462 1462 1464 1466 1470
1513 1510 1506 1503 1499 1496 1493 1490 1487 1484 1481 1479 1476 1476 1478 1461 1462 1463 1463 1464 1466 1468 1469 1471 1472 1472 1471 1466 1465 1464 1464 1462 1460 1459 1460 1461 1458 1454 1456 1456 1457 1460 1462 1463 1464
1509 1506 1503 1500 1496 1492 1488 1485 1482 1478 1475 1473 1473 1475 1466 1457 1455 1459 1460 1463 1466 1467 1468 1469 1471 1471 1468 1464 1464 1462 1461 1460 1448 1452 1455 1460 1452 1439 1449 1452 1454 1455 1456 1458 1460
1506 1503 1499 1496 1492 1489 1485 1481 1477 1472 1470 1469 1470 1473 1459 1450 1450 1454 1457 1459 1463 1465 1468 1469 1471 1469 1468 1463 1465 1458 1459 1450 1443 1435 1446 1455 1447 1436 1446 1450 1450 1450 1452 1455 1458
1503 1499 1496 1492 1488 1484 1480 1477 1472 1469 1468 1471 1471 1472 1448 1443 1444 1448 1454 1457 1460 1463 1467 1468 1466 1461 1457 1456 1455 1451 1452 1441 1436 1434 1445 1446 1445 1436 1444 1444 1448 1448 1449 1451 1454
1500 1496 1492 1487 1484 1480 1475 1476 1476 1471 1467 1453 1447 1441 1436 1438 1441 1444 1448 1453 1456 1459 1456 1459 1457 1451 1444 1444 1443 1436 1437 1445 1431 1428 1440 1443 1439 1436 1436 1440 1444 1444 1445 1447 1451
1495 1492 1488 1483 1480 1476 1472 1473 1469 1468 1452 1445 1440 1437 1435 1435 1437 1439 1444 1448 1448 1445 1450 1447 1445 1438 1440 1438 1441 1438 1439 1437 1433 1437 1441 1444 1442 1435 1436 1437 1439 1441 1445 1446 1448
1491 1488 1484 1480 1477 1474 1473 1471 1468 1466 1451 1429 1422 1420 1424 1431 1428 1428 1435 1436 1436 1438 1436 1433 1428 1434 1432 1432 1437 1439 1440 1440 1441 1435 1436 1442 1447 1439 1433 1435 1440 1445 1446 1443 1445
1485 1482 1479 1476 1476 1473 1471 1469 1467 1465 1445 1409 1401 1400 1408 1419 1417 1418 1426 1430 1426 1427 1427 1427 1421 1421 1427 1429 1432 1437 1435 1438 1437 1441 1445 1435 1448 1433 1431 1433 1436 1441 1443 1444 1445
1479 1475 1473 1468 1468 1466 1467 1464 1465 1464 1442 1379 1386 1397 1400 1404 1396 1407 1416 1423 1416 1417 1421 1417 1419 1420 1422 1425 1426 1431 1426 1434 1444 1448 1439 1428 1437 1419 1415 1424 1429 1438 1441 1445 1451
1476 1472 1467 1467 1466 1463 1462 1463 1462 1454 1422 1387 1390 1395 1397 1400 1393 1396 1407 1417 1417 1411 1411 1408 1410 1413 1418 1418 1422 1425 1429 1431 1432 1435 1449 1430 1427 1417 1419 1416 1421 1435 1444 1450 1456
1470 1466 1463 1461 1458 1462 1461 1461 1448 1435 1394 1383 1378 1385 1387 1389 1385 1386 1394 1403 1404 1411 1409 1408 1406 1407 1412 1417 1420 1424 1430 1441 1446 1440 1436 1420 1426 1417 1414 1406 1417 1433 1445 1452 1457
1465 1460 1455 1453 1455 1457 1460 1452 1433 1410 1398 1382 1392 1389 1376 1373 1375 1377 1389 1394 1396 1395 1396 1404 1412 1403 1406 1409 1413 1417 1419 1419 1444 1428 1416 1407 1429 1421 1415 1419 1426 1433 1444 1452 1457
1457 1455 1451 1449 1450 1453 1456 1431 1402 1402 1395 1388 1387 1382 1409 1367 1365 1371 1378 1381 1384 1385 1395 1391 1394 1389 1396 1403 1401 1411 1415 1407 1419 1422 1439 1411 1407 1416 1418 1422 1426 1436 1444 1452 1457
1455 1450 1441 1443 1445 1447 1448 1423 1407 1395 1395 1397 1414 1390 1394 1391 1380 1367 1366 1367 1373 1378 1381 1390 1396 1385 1392 1401 1403 1402 1403 1420 1426 1442 1433 1414 1423 1419 1421 1420 1428 1435 1443 1451 1458
1454 1448 1440 1438 1440 1444 1427 1403 1396 1395 1392 1390 1397 1406 1387 1391 1403 1380 1369 1358 1366 1371 1377 1383 1385 1398 1386 1392 1397 1402 1409 1418 1416 1414 1436 1427 1424 1420 1430 1421 1427 1432 1440 1449 1456
1455 1445 1437 1438 1439 1431 1415 1401 1403 1389 1389 1386 1398 1384 1382 1390 1397 1410 1398 1377 1373 1366 1375 1379 1389 1418 1390 1384 1386 1392 1397 1407 1425 1433 1421 1434 1438 1419 1425 1425 1430 1430 1440 1447 1454
1456 1441 1433 1434 1429 1412 1410 1405 1396 1393 1388 1386 1382 1378 1380 1377 1385 1387 1391 1378 1386 1381 1385 1382 1382 1400 1415 1394 1390 1398 1403 1404 1402 1411 1421 1442 1434 1424 1422 1423 1430 1429 1439 1448 1455
1457 1435 1430 1432 1424 1420 1414 1404 1397 1399 1400 1399 1392 1383 1385 1377 1363 1367 1388 1397 1394 1391 1395 1395 1393 1387 1395 1396 1394 1395 1392 1392 1402 1426 1423 1416 1414 1422 1423 1423 1426 1430 1439 1448 1454
1452 1438 1435 1424 1420 1416 1412 1412 1398 1403 1399 1391 1385 1380 1380 1378 1373 1365 1374 1393 1398 1399 1402 1407 1407 1387 1385 1399 1413 1398 1388 1392 1401 1409 1433 1409 1409 1428 1431 1431 1428 1434 1439 1445 1451
1453 1445 1437 1432 1422 1414 1411 1401 1401 1402 1406 1395 1397 1389 1388 1385 1385 1380 1370 1383 1386 1395 1400 1410 1413 1402 1398 1394 1397 1395 1399 1403 1398 1400 1398 1400 1404 1408 1422 1429 1430 1433 1438 1444 1449
1449 1446 1441 1433 1421 1411 1404 1401 1399 1402 1401 1400 1395 1392 1388 1386 1385 1390 1388 1387 1380 1387 1396 1403 1408 1410 1416 1392 1388 1397 1394 1398 1398 1396 1398 1406 1406 1406 1418 1422 1426 1431 1441 1445 1451